O3B FM15 1 43231U 18024A 21112.52254397 -.00000016 00000-0 00000-0 0 9990 2 43231 0.0519 14.8201 0002717 13.0695 332.1262 5.00115546 56891 O3B FM16 1 43232U 18024B 21112.37595423 -.00000017 00000-0 00000-0 0 9993 2 43232 0.0527 19.3107 0002752 8.5181 332.1872 5.00115503 56805 O3B FM14 1 43233U 18024C 21112.81557323 -.00000016 00000-0 00000-0 0 9999 2 43233 0.0524 20.9937 0002928 7.3249 331.6986 5.00115947 56823 O3B FM13 1 43234U 18024D 21112.02964677 -.00000017 00000-0 00000-0 0 9998 2 43234 0.0711 0.8932 0003764 342.0627 17.0327 5.00115679 56918 FREGAT R/B 1 43235U 18024E 21112.38176210 -.00000014 00000-0 00000-0 0 9993 2 43235 0.0953 332.9602 0010171 352.8419 34.1338 5.21348552 59420